Tracking 29892 objects as of 21-Nov-2024
HD Live streaming from Space Station
objects crossing your sky now

STARLINK-30374

Track STARLINK-30374 now!
10-day predictions
STARLINK-30374 is classified as:


NORAD ID: 57809
Int'l Code: 2023-138B
Perigee: 565.6 km
Apogee: 566.8 km
Inclination: 43.0 °
Period: 95.8 minutes
Semi major axis: 6937 km
RCS: Unknown
Launch date: September 9, 2023
Source: United States (US)
Launch site: AIR FORCE EASTERN TEST RANGE (AFETR)
Your satellite tracking list
Your tracking list is empty




NASA's NSSDC Master Catalog

Two Line Element Set (TLE):
1 57809U 23138B   24325.91306535 -.00000296  00000-0 -68488-5 0  9992
2 57809  43.0047 290.7965 0000878 275.0914  84.9828 15.02537491 67445
Source of the keplerian elements: AFSPC